Dewpoint
56 56 57 57 57 57 57 58 58 58 58 58 59 59 59 60 59 52 27 42 57 73 73 60 59 56 56 53 47 46 42 26 23 26 27 28 33 41 44 49 51 50 51 55 60
56 56 56 57 57 57 57 57 57 57 58 58 58 58 59 59 41 30 59 73 71 73 59 52 52 51 50 40 37 36 31 25 25 25 25 26 28 35 43 45 51 53 53 58 59
55 56 56 55 56 56 56 56 57 57 57 57 58 59 59 57 38 33 72 74 71 72 49 49 40 46 40 33 30 31 29 27 25 26 25 27 28 31 38 41 48 52 54 58 59
55 55 55 55 55 55 56 56 56 56 57 57 58 59 59 44 25 48 74 74 72 59 48 45 37 40 35 30 29 27 29 28 25 26 25 31 29 30 34 38 44 51 56 57 59
55 54 54 54 55 55 56 56 56 56 56 57 58 59 43 29 14 62 74 73 60 56 43 40 35 36 32 28 29 28 28 27 25 26 32 33 31 33 35 38 45 51 56 56 58
54 54 55 55 55 55 55 55 55 55 56 57 58 59 43 15 32 57 55 58 46 41 37 32 30 30 26 25 26 28 28 27 26 26 32 31 29 33 42 43 48 53 55 55 57
54 54 55 54 54 55 55 54 55 55 57 58 59 50 24 13 18 46 50 47 42 37 29 27 26 23 24 26 25 24 24 26 24 25 27 27 24 38 40 45 50 52 53 56 57
54 54 54 54 54 54 54 53 54 55 58 60 60 45 23 10 18 37 46 43 41 34 27 19 20 21 22 25 24 22 21 21 22 26 24 25 23 29 37 46 50 51 52 55 58
53 54 54 54 54 53 53 53 54 57 58 59 49 38 15 34 11 20 34 34 34 27 28 22 21 19 17 16 15 19 19 18 21 23 22 24 24 25 32 42 49 52 53 55 59
53 53 53 53 53 52 52 53 55 53 53 48 40 27 19 10 7 8 15 21 21 20 21 23 18 16 15 12 11 13 17 19 19 19 19 21 22 21 30 35 44 51 54 55 58
53 53 53 53 52 51 48 31 30 39 33 18 19 17 8 8 17 18 14 15 18 17 17 19 14 13 14 15 15 14 16 19 21 19 19 19 24 24 30 31 38 51 55 56 56
52 53 53 53 52 51 46 23 25 22 21 17 14 12 18 17 15 13 16 18 20 17 16 13 12 14 11 14 16 16 15 15 15 15 16 19 21 23 29 36 37 47 52 54 56
52 52 52 52 51 44 19 25 27 21 21 12 10 10 7 9 11 12 15 17 18 18 14 12 9 11 10 14 13 13 15 16 15 14 13 19 23 24 27 42 44 43 48 53 55
52 52 52 51 41 21 23 29 20 25 17 7 6 10 11 7 10 11 10 16 17 17 16 13 12 10 10 12 8 12 12 11 10 13 11 16 15 27 26 33 42 43 44 50 55
51 51 51 50 39 21 19 17 19 28 10 6 1 10 10 9 9 10 9 13 17 17 17 15 12 12 12 8 6 10 10 13 15 15 15 13 17 21 27 29 33 39 48 49 55
51 51 51 35 35 26 21 19 23 17 12 6 4 7 8 11 11 10 9 10 15 17 18 17 15 13 12 11 4 9 12 16 15 13 11 17 15 19 23 30 27 42 48 53 56
50 49 48 38 18 19 22 19 17 13 13 10 3 3 4 7 13 13 13 13 12 17 19 17 15 13 13 12 11 13 13 13 14 13 10 16 16 22 20 20 28 34 52 56 58
49 48 46 38 29 29 23 16 20 16 14 9 5 4 4 4 6 11 15 14 15 15 14 15 15 15 15 14 14 13 14 12 19 14 13 22 19 18 20 19 30 47 50 58 57
48 26 24 30 36 33 21 13 17 20 15 11 9 6 8 5 7 9 11 11 14 17 19 16 15 14 14 14 14 15 15 12 15 18 13 15 17 20 21 20 25 46 52 56 57
38 28 24 36 38 31 15 19 17 15 15 13 13 12 9 7 9 11 12 10 7 7 13 17 18 13 13 13 12 12 12 14 13 21 20 15 19 17 26 25 33 45 50 56 55
39 18 38 37 38 24 9 12 15 12 17 17 14 12 11 12 14 13 11 10 8 7 11 11 17 16 14 14 12 12 12 15 13 15 14 15 15 29 25 27 33 46 50 57 55
24 16 35 32 25 16 9 10 21 12 13 15 16 14 16 15 15 15 13 16 20 15 11 14 13 17 14 13 13 13 17 17 15 24 18 19 15 16 21 33 40 44 51 57 58
24 15 33 29 20 16 15 7 8 12 15 14 15 15 14 15 19 16 19 20 23 24 23 18 15 14 17 12 13 14 15 19 20 23 26 20 21 30 33 38 47 48 54 58 57
27 20 29 30 24 25 23 16 12 8 10 13 15 15 15 16 19 21 19 16 20 26 51 41 23 22 10 19 16 18 13 15 18 21 20 17 20 34 42 45 48 51 58 59 56
30 24 37 31 24 22 22 23 23 20 18 21 19 15 16 20 18 18 16 18 18 37 31 29 30 24 20 14 20 16 11 11 15 19 18 26 41 48 48 49 50 53 57 59 58
31 34 37 35 38 35 32 29 28 27 27 25 24 18 18 21 21 19 17 22 23 23 26 31 33 33 24 15 16 14 13 15 14 14 17 17 39 39 49 51 52 52 52 55 58
25 27 36 36 34 33 28 28 28 29 30 27 25 22 21 21 20 16 17 24 28 30 28 31 32 34 24 19 17 17 16 14 17 17 18 33 46 47 50 55 56 56 57 57 55
Lifted_Index
15 15 15 15 15 15 15 15 15 14 14 13 13 13 12 11 10 8 7 5 2 -0 -2 -2 -3 -3 -3 -2 -1 -1 -1 -1 -1 -1 -1 -1 -1 -1 -2 -3 -4 -4 -4 -4 -4
16 16 16 15 15 15 15 15 14 14 14 13 13 13 12 11 10 8 6 3 1 -0 -1 -1 -2 -2 -2 -1 -0 -0 -1 -1 -1 -1 -1 -1 -1 -1 -2 -3 -4 -4 -4 -4 -4
16 16 16 16 16 15 15 14 14 14 14 13 13 13 12 11 9 6 4 2 1 0 0 1 0 -0 -1 -0 0 0 -0 -0 -1 -0 -1 -1 -1 -1 -2 -3 -4 -4 -4 -4 -4
17 17 17 16 16 15 15 14 14 13 13 13 13 12 11 10 7 4 2 1 1 1 2 2 2 1 0 0 0 0 0 -0 -1 -1 -0 -0 -0 -1 -1 -2 -3 -4 -4 -4 -4
17 17 17 16 16 15 15 14 13 13 13 12 12 12 10 8 6 3 1 1 2 3 3 3 3 3 2 1 0 0 0 0 -0 -1 -0 -0 -0 -1 -1 -1 -2 -3 -4 -4 -4
17 17 17 16 16 15 14 14 13 12 12 12 12 11 9 8 6 4 3 3 4 5 5 5 5 4 3 2 1 1 1 0 -0 -1 -0 -0 -0 -1 -1 -2 -3 -3 -4 -4 -4
16 16 16 16 16 15 14 13 12 12 11 11 10 9 8 8 7 5 4 5 5 6 7 7 6 5 4 3 2 2 1 0 -1 -1 -0 -0 -0 -1 -1 -2 -3 -3 -3 -4 -5
16 16 16 15 15 15 14 13 12 11 10 9 9 8 7 7 7 6 5 5 6 6 7 7 7 6 5 4 3 2 1 -0 -1 -1 -0 -0 -0 -1 -1 -2 -3 -3 -3 -4 -5
16 16 16 15 15 14 13 12 11 10 9 8 7 6 6 6 7 7 6 6 6 7 7 8 7 6 5 4 3 1 0 -1 -1 -1 -0 -0 -1 -1 -1 -2 -3 -4 -4 -4 -5
16 16 16 15 15 14 13 11 10 9 7 6 5 5 5 5 6 7 6 6 6 7 7 7 6 5 4 3 1 0 -0 -1 -1 -1 -1 -1 -1 -1 -0 -1 -2 -4 -4 -5 -5
17 16 16 15 15 13 12 10 9 7 7 6 5 4 4 5 5 6 6 6 5 5 5 5 5 4 3 2 1 1 0 0 -0 -0 -1 -1 -1 -1 -0 -0 -2 -3 -4 -5 -5
17 16 16 15 14 13 11 10 9 8 7 6 5 4 4 4 4 4 4 4 4 4 4 3 3 2 2 2 2 2 2 1 0 -0 -1 -0 -1 -1 -0 -1 -2 -3 -4 -5 -5
17 16 15 14 13 12 10 9 9 8 7 5 5 4 3 3 3 3 3 3 3 2 2 2 1 1 2 2 3 2 2 1 0 -0 -0 -1 -1 -1 -0 -1 -2 -3 -4 -4 -5
17 16 15 13 12 10 10 9 9 7 5 4 3 3 3 3 2 2 2 2 2 1 1 0 -0 0 1 2 2 2 1 1 1 1 -0 -1 -1 -1 -1 -1 -1 -2 -3 -4 -5
17 16 15 13 11 10 9 9 8 6 3 2 2 2 3 2 2 1 1 1 1 1 0 -0 -0 0 1 1 2 1 1 1 2 1 0 -1 -1 -1 -1 -1 -1 -2 -3 -4 -5
17 16 14 12 10 10 9 9 7 4 2 1 1 1 2 2 1 1 0 1 1 1 0 -0 -0 -0 0 1 1 2 1 1 1 0 -0 -1 -1 -1 -1 -1 -1 -2 -3 -4 -5
17 15 13 11 10 9 9 7 5 3 2 1 0 0 1 1 1 0 -0 0 1 0 0 -0 -0 -0 0 1 1 1 1 1 0 -0 -1 -1 -1 -1 -1 -0 -0 -1 -3 -5 -5
16 14 11 9 8 8 8 6 4 3 1 0 -0 -0 -0 -0 -0 -0 -0 -0 -0 -0 -0 -0 -1 -0 -0 0 0 0 0 -0 -1 -1 -1 -1 -1 -1 -1 -0 -0 -1 -3 -5 -5
14 12 9 7 7 7 7 5 3 2 1 0 -0 -0 -0 -1 -1 -1 -1 -0 -0 -0 -0 -0 -1 -1 -0 -0 -0 -0 -0 -1 -1 -1 -1 -1 -1 -1 -1 -0 -0 -2 -3 -5 -5
12 10 7 5 5 6 6 4 3 2 1 1 0 -0 -0 -1 -1 -1 -1 -1 -1 -1 -1 -1 -1 -1 -1 -1 -0 -0 -0 -1 -1 -1 -1 -1 -1 -1 -1 -0 -1 -2 -4 -5 -5
10 8 5 4 5 5 5 4 3 2 2 2 1 0 -0 -1 -1 -1 -1 -1 -0 -0 -1 -1 -1 -1 -1 -1 -1 -1 -0 -1 -1 -1 -1 -1 -1 -1 -1 -0 -1 -2 -4 -5 -6
9 7 5 4 4 4 4 4 3 2 2 2 2 1 0 0 -0 -0 -0 -0 0 0 -0 -1 -1 -1 -1 -1 -1 -1 -1 -1 -1 -1 -1 -1 -1 -1 -1 -1 -2 -3 -5 -6 -6
8 6 4 4 4 3 4 3 3 3 3 2 2 2 1 1 1 1 0 0 1 1 -0 -0 -1 -1 -1 -1 -1 -1 -1 -1 -1 -1 -1 -1 -1 -0 -1 -2 -3 -4 -6 -6 -6
7 5 3 3 3 3 3 3 3 3 3 3 2 2 2 2 2 1 0 0 1 1 0 0 -0 -0 -1 -1 -1 -1 -1 -1 -1 -1 -1 -1 -1 -1 -2 -3 -3 -5 -6 -6 -6
5 4 2 1 2 2 3 3 2 2 2 2 2 2 2 2 2 1 0 0 0 1 1 0 -0 -0 -1 -1 -1 -1 -1 -1 -1 -1 -1 -1 -1 -1 -3 -4 -4 -5 -6 -6 -6
5 4 2 1 1 1 2 2 1 0 -0 0 1 1 2 2 2 1 0 -0 -0 0 0 -0 -1 -1 -1 -1 -1 -1 -1 -1 -1 -1 -1 -1 -1 -2 -4 -4 -4 -5 -5 -6 -6
7 5 3 1 0 0 1 1 1 -0 -1 -0 0 1 1 1 1 1 0 -0 -0 -0 -0 -1 -1 -1 -1 -1 -1 -1 -1 -1 -1 -1 -1 -2 -2 -3 -4 -5 -5 -5 -5 -5 -5